SQ9NFI-4 Weather Reports


Display with metric or nautical units.
time (UTC)temp
F
wind
direction
speed
MPH
gust
MPH
rain 1hr
in
rain 24hr
in
rain mn
in
humidity
%
barometer
mb
20260906220837 44 317 0.0 0.0 0.00 0.00 0.00 99 1028.1
20260906220337 44 312 0.0 0.0 0.00 0.00 0.00 99 1028.1
20260906215837 44 331 0.0 0.0 0.00 0.00 0.00 99 1028.1
20260906215337 44 326 0.0 0.0 0.00 0.00 0.00 99 1028.1
20260906214837 44 326 0.0 0.0 0.00 0.00 0.00 99 1028.1
20260906214337 44 326 0.0 0.0 0.00 0.00 0.00 99 1028.1
20260906213837 44 326 0.0 0.0 0.00 0.00 0.00 99 1028.1
20260906213337 45 320 0.0 0.0 0.00 0.00 0.00 99 1028.1
20260906212837 44 320 0.0 0.0 0.00 0.00 0.00 99 1028.1
20260906212337 44 320 0.0 0.0 0.00 0.00 0.00 99 1028.1
20260906211837 45 320 0.0 0.0 0.00 0.00 0.00 99 1028.1
20260906211337 46 331 0.0 0.0 0.00 0.00 0.00 99 1028.1
20260906210837 46 331 0.0 0.0 0.00 0.00 0.00 99 1028.1
20260906210337 46 331 0.0 0.0 0.00 0.00 0.00 99 1028.1
20260906205837 46 325 0.0 0.0 0.00 0.00 0.00 99 1028.1
20260906205337 46 317 0.0 0.0 0.00 0.00 0.00 99 1028.1
20260906204837 46 330 0.0 0.0 0.00 0.00 0.00 99 1028.1
20260906204337 46 336 0.0 0.0 0.00 0.00 0.00 99 1028.1
20260906203837 46 336 0.0 0.0 0.00 0.00 0.00 99 1027.8
20260906203337 47 335 0.0 0.0 0.00 0.00 0.00 99 1027.8
20260906202837 47 335 0.0 0.0 0.00 0.00 0.00 99 1027.8
20260906202337 47 333 0.0 0.0 0.00 0.00 0.00 99 1027.8
20260906201837 47 328 0.0 0.0 0.00 0.00 0.00 99 1027.8
20260906201337 47 329 0.0 0.0 0.00 0.00 0.00 99 1027.8
20260906200837 47 329 0.0 0.0 0.00 0.00 0.00 99 1027.8
20260906200337 47 329 0.0 0.0 0.00 0.00 0.00 99 1027.8
20260906195837 47 329 0.0 0.0 0.00 0.00 0.00 99 1027.8
20260906195337 48 329 0.0 0.0 0.00 0.00 0.00 99 1027.8
20260906194837 48 329 0.0 0.0 0.00 0.00 0.00 99 1027.8
20260906194337 48 328 0.0 0.0 0.00 0.00 0.00 99 1027.8
20260906193837 49 328 0.0 0.0 0.00 0.00 0.00 98 1028.1
20260906193337 49 331 0.0 0.0 0.00 0.00 0.00 98 1028.1
20260906192837 49 331 0.0 0.0 0.00 0.00 0.00 98 1028.1
20260906192337 49 331 0.0 0.0 0.00 0.00 0.00 97 1027.8
20260906191837 49 331 0.0 0.0 0.00 0.00 0.00 97 1027.8
20260906191337 50 331 0.0 0.0 0.00 0.00 0.00 97 1027.8
20260906190837 50 331 0.0 0.0 0.00 0.00 0.00 96 1027.8
20260906190337 51 332 0.0 0.0 0.00 0.00 0.00 95 1027.8
20260906185837 51 329 0.0 0.0 0.00 0.00 0.00 95 1027.8
20260906185337 51 329 0.0 0.0 0.00 0.00 0.00 94 1027.8
20260906184837 51 329 0.0 0.0 0.00 0.00 0.00 91 1027.4
20260906184337 52 329 0.0 0.0 0.00 0.00 0.00 91 1027.4
20260906183837 53 329 0.0 0.0 0.00 0.00 0.00 91 1027.4
20260906183337 53 325 0.0 0.0 0.00 0.00 0.00 91 1027.4
20260906182837 54 325 0.0 0.0 0.00 0.00 0.00 90 1027.4
20260906182337 55 334 0.0 0.0 0.00 0.00 0.00 90 1027.4
20260906181837 56 334 0.0 0.0 0.00 0.00 0.00 89 1027.4
20260906181338 57 334 0.0 0.0 0.00 0.00 0.00 82 1026.8
20260906180837 57 334 0.0 0.0 0.00 0.00 0.00 80 1026.8
20260906180337 58 334 0.0 0.0 0.00 0.00 0.00 84 1026.8
20260906175837 58 327 0.0 0.0 0.00 0.00 0.00 83 1026.8
20260906175337 59 334 0.0 0.0 0.00 0.00 0.00 76 1026.8
20260906174837 60 325 0.0 0.0 0.00 0.00 0.00 76 1026.8
20260906174337 60 320 0.0 0.0 0.00 0.00 0.00 73 1026.8
20260906173837 60 314 1.0 1.0 0.00 0.00 0.00 70 1026.8
20260906173337 61 321 0.0 0.0 0.00 0.00 0.00 68 1026.8
20260906172837 62 322 0.0 0.0 0.00 0.00 0.00 64 1026.8
20260906172337 62 328 1.0 3.0 0.00 0.00 0.00 61 1026.8
20260906171837 62 302 3.0 3.0 0.00 0.00 0.00 61 1026.8
20260906171337 62 315 1.0 2.0 0.00 0.00 0.00 61 1026.4
20260906170837 62 297 4.0 5.0 0.00 0.00 0.00 60 1026.4
20260906170337 63 332 2.0 3.0 0.00 0.00 0.00 60 1026.4
20260906165837 63 307 4.0 5.0 0.00 0.00 0.00 58 1026.4
20260906165337 64 323 12.0 17.0 0.00 0.00 0.00 57 1026.4
20260906164837 64 308 5.0 7.0 0.00 0.00 0.00 58 1026.4
20260906164337 64 337 3.0 7.0 0.00 0.00 0.00 58 1026.4
20260906163837 64 341 4.0 5.0 0.00 0.00 0.00 58 1026.1
20260906163337 65 334 3.0 3.0 0.00 0.00 0.00 57 1026.1
20260906162837 65 334 3.0 6.0 0.00 0.00 0.00 56 1026.1
20260906162337 65 338 3.0 6.0 0.00 0.00 0.00 56 1026.1
20260906161837 66 315 9.0 9.0 0.00 0.00 0.00 53 1026.1
20260906161337 67 339 3.0 5.0 0.00 0.00 0.00 54 1026.1
20260906160837 67 335 7.0 7.0 0.00 0.00 0.00 51 1026.1
20260906160337 66 341 6.0 6.0 0.00 0.00 0.00 54 1026.1
20260906155837 67 322 6.0 7.0 0.00 0.00 0.00 51 1026.1
20260906155337 68 325 8.0 9.0 0.00 0.00 0.00 51 1026.1
20260906154837 68 323 5.0 8.0 0.00 0.00 0.00 50 1026.1
20260906154337 68 324 5.0 7.0 0.00 0.00 0.00 51 1026.1
20260906153837 67 340 8.0 8.0 0.00 0.00 0.00 51 1026.1
20260906153337 67 356 8.0 9.0 0.00 0.00 0.00 52 1026.1
20260906152837 67 337 7.0 7.0 0.00 0.00 0.00 53 1026.1
20260906152337 64 340 6.0 7.0 0.00 0.00 0.00 56 1026.1
20260906151837 65 304 11.0 11.0 0.00 0.00 0.00 55 1026.1
20260906151337 65 274 6.0 8.0 0.00 0.00 0.00 56 1025.7
20260906150837 65 304 8.0 10.0 0.00 0.00 0.00 54 1025.7
20260906150337 65 302 1.0 5.0 0.00 0.00 0.00 56 1025.7
20260906145837 65 297 6.0 9.0 0.00 0.00 0.00 55 1025.7
20260906145337 65 303 9.0 12.0 0.00 0.00 0.00 54 1025.7
20260906144837 65 300 4.0 7.0 0.00 0.00 0.00 54 1025.7
20260906144337 65 279 9.0 13.0 0.00 0.00 0.00 54 1025.7
20260906143837 65 335 4.0 7.0 0.00 0.00 0.00 55 1025.7
20260906143337 65 327 16.0 19.0 0.00 0.00 0.00 53 1025.7
20260906142837 66 313 8.0 10.0 0.00 0.00 0.00 54 1025.7
20260906142337 66 311 6.0 10.0 0.00 0.00 0.00 53 1025.7
20260906141837 67 352 4.0 10.0 0.00 0.00 0.00 53 1025.7
20260906141337 67 350 8.0 13.0 0.00 0.00 0.00 54 1025.7
20260906140837 67 310 4.0 8.0 0.00 0.00 0.00 54 1025.7
20260906140337 67 354 5.0 10.0 0.00 0.00 0.00 54 1025.7
20260906135837 67 320 6.0 9.0 0.00 0.00 0.00 54 1025.7
20260906135337 68 288 7.0 12.0 0.00 0.00 0.00 51 1025.7
20260906134837 67 289 9.0 12.0 0.00 0.00 0.00 52 1025.7
20260906134337 66 310 6.0 7.0 0.00 0.00 0.00 54 1025.7
20260906133837 67 315 3.0 3.0 0.00 0.00 0.00 54 1025.7
20260906133337 67 263 12.0 12.0 0.00 0.00 0.00 52 1025.7
20260906132837 66 337 8.0 13.0 0.00 0.00 0.00 54 1025.7
20260906132337 67 342 9.0 14.0 0.00 0.00 0.00 53 1025.7
20260906131837 66 353 7.0 21.0 0.00 0.00 0.00 52 1025.7
20260906131337 65 334 12.0 17.0 0.00 0.00 0.00 52 1025.7
20260906130837 68 321 5.0 5.0 0.00 0.00 0.00 50 1025.7
20260906130337 68 272 9.0 13.0 0.00 0.00 0.00 51 1025.7
20260906125837 69 311 13.0 14.0 0.00 0.00 0.00 50 1025.7
20260906125337 68 318 8.0 13.0 0.00 0.00 0.00 52 1025.7
20260906124837 67 53 8.0 12.0 0.00 0.00 0.00 52 1025.4
20260906124337 69 37 4.0 4.0 0.00 0.00 0.00 51 1025.4
20260906123837 68 310 11.0 11.0 0.00 0.00 0.00 49 1025.4
20260906123337 69 306 11.0 19.0 0.00 0.00 0.00 49 1025.4
20260906122837 68 281 16.0 16.0 0.00 0.00 0.00 49 1025.4
20260906122337 69 334 8.0 13.0 0.00 0.00 0.00 51 1025.4
20260906121837 68 338 11.0 12.0 0.00 0.00 0.00 53 1025.4
20260906121337 67 285 10.0 17.0 0.00 0.00 0.00 55 1025.4
20260906120837 66 311 9.0 11.0 0.00 0.00 0.00 54 1025.4
20260906120337 65 344 10.0 17.0 0.00 0.00 0.00 54 1025.4
20260906115837 67 322 13.0 20.0 0.00 0.00 0.00 54 1025.4
20260906115337 66 294 7.0 17.0 0.00 0.00 0.00 55 1025.4
20260906114837 67 290 7.0 21.0 0.00 0.00 0.00 53 1025.4
20260906114337 67 338 12.0 12.0 0.00 0.00 0.00 54 1025.4
20260906113837 66 321 11.0 19.0 0.00 0.00 0.00 55 1025.4
20260906113337 65 338 11.0 12.0 0.00 0.00 0.00 59 1025.4
20260906112837 67 334 11.0 19.0 0.00 0.00 0.00 55 1025.4
20260906112337 65 304 9.0 14.0 0.00 0.00 0.00 59 1025.4
20260906111837 65 309 17.0 19.0 0.00 0.00 0.00 57 1025.4
20260906111337 67 283 10.0 18.0 0.00 0.00 0.00 54 1025.4
20260906110837 65 342 15.0 18.0 0.00 0.00 0.00 56 1025.4
20260906110337 65 24 10.0 17.0 0.00 0.00 0.00 56 1025.4
20260906105837 68 320 16.0 16.0 0.00 0.00 0.00 53 1025.4
20260906105337 67 281 6.0 12.0 0.00 0.00 0.00 58 1025.4
20260906104837 65 309 11.0 21.0 0.00 0.00 0.00 58 1025.4
20260906104337 67 314 12.0 18.0 0.00 0.00 0.00 56 1025.4
20260906103837 67 264 8.0 13.0 0.00 0.00 0.00 57 1025.4
20260906103337 65 326 11.0 29.0 0.00 0.00 0.00 58 1025.4
20260906102837 64 295 11.0 17.0 0.00 0.00 0.00 60 1025.4
20260906102337 64 329 15.0 26.0 0.00 0.00 0.00 60 1025.1
20260906101837 63 311 16.0 25.0 0.00 0.00 0.00 61 1025.1
20260906101337 64 289 14.0 21.0 0.00 0.00 0.00 60 1025.1
20260906100837 65 338 19.0 28.0 0.00 0.00 0.00 59 1025.1
20260906100337 64 344 10.0 12.0 0.00 0.00 0.00 63 1025.4
20260906095837 64 350 15.0 19.0 0.00 0.00 0.00 62 1025.4
20260906095337 62 316 7.0 14.0 0.00 0.00 0.00 66 1025.4
20260906094837 62 311 10.0 11.0 0.00 0.00 0.00 65 1025.1
20260906094337 63 315 14.0 14.0 0.00 0.00 0.00 64 1025.1
20260906093837 64 270 6.0 8.0 0.00 0.00 0.00 65 1025.1
20260906093337 64 282 17.0 17.0 0.00 0.00 0.00 62 1025.1
20260906092837 64 324 9.0 16.0 0.00 0.00 0.00 64 1025.1
20260906092337 64 280 11.0 12.0 0.00 0.00 0.00 65 1025.1
20260906091837 63 282 10.0 17.0 0.00 0.00 0.00 65 1025.1
20260906091337 62 313 13.0 18.0 0.00 0.00 0.00 68 1025.1
20260906090837 62 331 14.0 19.0 0.00 0.00 0.00 67 1025.1
20260906090337 62 301 8.0 8.0 0.00 0.00 0.00 70 1025.1
20260906085837 62 354 20.0 29.0 0.00 0.00 0.00 66 1025.1
20260906085337 63 304 15.0 17.0 0.00 0.00 0.00 66 1025.1
20260906084837 61 269 4.0 5.0 0.00 0.00 0.00 70 1024.7
20260906084337 62 340 8.0 8.0 0.00 0.00 0.00 69 1024.7
20260906083837 62 346 13.0 17.0 0.00 0.00 0.00 69 1024.7
20260906083337 63 191 11.0 12.0 0.00 0.00 0.00 66 1024.7
20260906082837 62 294 14.0 20.0 0.00 0.00 0.00 68 1024.7
20260906082337 63 313 6.0 6.0 0.00 0.00 0.00 68 1024.7
20260906081837 62 284 10.0 12.0 0.00 0.00 0.00 72 1024.7
20260906081337 59 322 11.0 17.0 0.00 0.00 0.00 75 1024.7
20260906080837 60 294 13.0 14.0 0.00 0.00 0.00 74 1024.7
20260906080337 60 328 7.0 13.0 0.00 0.00 0.00 75 1024.4
20260906075837 61 319 13.0 17.0 0.00 0.00 0.00 71 1024.4
20260906075337 62 342 10.0 17.0 0.00 0.00 0.00 70 1024.4
20260906074837 60 316 8.0 12.0 0.00 0.00 0.00 72 1024.4
20260906074337 60 344 12.0 13.0 0.00 0.00 0.00 73 1024.4
20260906073837 60 341 7.0 10.0 0.00 0.00 0.00 74 1024.4
20260906073337 60 294 9.0 14.0 0.00 0.00 0.00 74 1024.4
20260906072837 60 315 13.0 13.0 0.00 0.00 0.00 75 1024.4
20260906072337 60 332 16.0 26.0 0.05 0.00 0.00 75 1023.7
20260906071837 60 299 15.0 18.0 0.05 0.00 0.00 75 1023.7
20260906071337 59 318 16.0 16.0 0.00 0.00 0.00 77 1023.7
20260906070837 59 334 8.0 13.0 0.00 0.00 0.00 77 1023.7
20260906070337 58 299 17.0 29.0 0.00 0.00 0.00 77 1023.7
20260906065837 58 302 16.0 29.0 0.00 0.00 0.00 77 1023.7
20260906065337 58 302 17.0 25.0 0.00 0.00 0.00 78 1023.7
20260906064837 58 316 17.0 29.0 0.00 0.00 0.00 78 1023.4
20260906064337 58 325 14.0 24.0 0.00 0.00 0.00 80 1023.4
20260906063837 58 286 11.0 21.0 0.00 0.00 0.00 80 1023.0
20260906063337 58 326 9.0 15.0 0.00 0.00 0.00 80 1023.0
20260906062837 58 316 10.0 13.0 0.00 0.00 0.00 81 1023.0
20260906062337 58 291 10.0 10.0 0.00 0.00 0.00 82 1023.0
20260906061837 58 321 12.0 20.0 0.00 0.00 0.00 81 1023.0
20260906061337 58 285 9.0 11.0 0.00 0.00 0.00 81 1023.0
20260906060837 58 318 9.0 14.0 0.00 0.00 0.00 82 1023.0
20260906060337 58 300 4.0 8.0 0.00 0.00 0.00 84 1022.7
20260906055837 57 329 7.0 11.0 0.00 0.00 0.00 84 1022.7
20260906055337 57 341 6.0 9.0 0.00 0.00 0.00 85 1022.7
20260906054837 56 340 6.0 6.0 0.00 0.00 0.00 86 1022.7
20260906054337 56 281 10.0 10.0 0.00 0.00 0.00 86 1022.7
20260906053837 56 296 6.0 10.0 0.00 0.00 0.00 86 1022.7
20260906053337 56 299 8.0 11.0 0.00 0.00 0.00 86 1022.7
20260906052837 56 271 7.0 11.0 0.00 0.00 0.00 87 1022.7
20260906052337 56 332 5.0 9.0 0.00 0.00 0.00 88 1022.7
20260906051837 55 325 4.0 4.0 0.00 0.00 0.00 89 1022.7
20260906051337 55 307 3.0 5.0 0.00 0.00 0.00 89 1022.7
20260906050837 55 303 2.0 8.0 0.00 0.00 0.00 88 1022.7
20260906050337 55 316 6.0 8.0 0.00 0.00 0.00 89 1022.7
20260906045837 54 303 6.0 7.0 0.00 0.00 0.00 90 1022.7
20260906045337 54 325 3.0 4.0 0.00 0.00 0.00 91 1022.7
20260906044837 54 337 3.0 4.0 0.00 0.00 0.00 90 1022.7
20260906044337 54 310 4.0 6.0 0.00 0.00 0.00 90 1022.7
20260906043837 54 301 11.0 11.0 0.00 0.00 0.00 90 1022.7
20260906043337 54 326 6.0 7.0 0.00 0.00 0.00 90 1022.7
20260906042837 54 254 7.0 7.0 0.00 0.00 0.00 90 1022.7
20260906042337 54 322 9.0 10.0 0.00 0.00 0.00 90 1022.4
20260906041837 54 325 4.0 7.0 0.00 0.00 0.00 91 1022.4
20260906041337 54 317 7.0 8.0 0.00 0.00 0.00 91 1022.4
20260906040837 54 310 3.0 10.0 0.00 0.00 0.00 91 1022.4
20260906040337 54 304 4.0 5.0 0.00 0.00 0.00 92 1022.0
20260906035837 54 312 4.0 8.0 0.00 0.00 0.00 91 1022.0
20260906035337 54 312 3.0 5.0 0.00 0.00 0.00 92 1022.0
20260906034837 54 333 5.0 6.0 0.00 0.00 0.00 91 1022.0
20260906034337 55 341 8.0 11.0 0.00 0.00 0.00 91 1022.0
20260906033837 55 334 3.0 6.0 0.00 0.00 0.00 91 1022.0
20260906033337 55 307 3.0 6.0 0.00 0.00 0.00 91 1022.0
20260906032837 55 324 9.0 10.0 0.00 0.00 0.00 91 1022.0
20260906032337 55 284 7.0 7.0 0.00 0.00 0.00 91 1021.7
20260906031837 55 295 3.0 4.0 0.00 0.00 0.00 91 1021.7
20260906031337 55 317 3.0 9.0 0.00 0.00 0.00 91 1021.7
20260906030837 55 308 4.0 4.0 0.00 0.00 0.00 91 1021.7
20260906030337 56 278 8.0 9.0 0.00 0.00 0.00 91 1021.7
20260906025837 56 306 2.0 3.0 0.00 0.00 0.00 91 1021.7
20260906025337 56 270 7.0 10.0 0.00 0.00 0.00 91 1021.7
20260906024836 56 299 9.0 14.0 0.00 0.00 0.00 90 1021.0
20260906024337 56 320 4.0 12.0 0.00 0.00 0.00 90 1021.0
20260906023837 56 297 6.0 6.0 0.00 0.00 0.00 90 1021.0
20260906023337 56 295 6.0 6.0 0.00 0.00 0.00 90 1021.0
20260906022837 56 300 8.0 11.0 0.00 0.00 0.00 90 1021.0
20260906022337 56 305 10.0 12.0 0.00 0.00 0.00 90 1021.0
20260906021837 56 270 7.0 8.0 0.00 0.00 0.00 91 1021.0
20260906021337 56 275 4.0 6.0 0.00 0.00 0.00 91 1021.0
20260906020837 56 326 8.0 10.0 0.00 0.00 0.00 91 1021.0
20260906020337 56 329 6.0 6.0 0.00 0.00 0.00 91 1021.0
20260906015837 56 332 6.0 14.0 0.00 0.00 0.00 91 1021.0
20260906015337 56 323 4.0 6.0 0.00 0.00 0.00 92 1021.0
20260906014837 56 329 7.0 11.0 0.00 0.00 0.00 92 1021.0
20260906014337 56 317 6.0 10.0 0.00 0.00 0.00 92 1021.0
20260906013837 56 306 4.0 5.0 0.00 0.00 0.00 92 1021.0
20260906013337 56 305 6.0 7.0 0.00 0.00 0.00 92 1021.0
20260906012837 56 317 6.0 8.0 0.00 0.00 0.00 92 1021.0
20260906012337 56 312 7.0 10.0 0.00 0.00 0.00 92 1021.0
20260906011837 56 280 7.0 8.0 0.00 0.00 0.00 92 1021.0
20260906011337 56 291 6.0 6.0 0.00 0.00 0.00 92 1021.0
20260906010837 57 306 4.0 9.0 0.00 0.00 0.00 92 1021.0
20260906010337 57 326 5.0 6.0 0.00 0.00 0.00 92 1021.0
20260906005837 57 329 10.0 13.0 0.00 0.00 0.00 92 1021.0
20260906005337 57 313 3.0 10.0 0.00 0.00 0.00 92 1021.0
20260906004837 57 299 7.0 10.0 0.00 0.00 0.00 92 1020.7
20260906004337 57 280 7.0 11.0 0.00 0.00 0.00 92 1020.7
20260906003837 57 299 9.0 14.0 0.00 0.00 0.00 92 1020.7
20260906003337 57 290 5.0 6.0 0.00 0.00 0.00 93 1020.7
20260906002837 57 328 6.0 9.0 0.00 0.00 0.00 93 1020.7
20260906002337 57 313 4.0 8.0 0.00 0.00 0.00 94 1020.7
20260906001837 57 294 6.0 7.0 0.00 0.00 0.00 93 1020.7
20260906001337 57 311 7.0 8.0 0.00 0.00 0.00 93 1020.7
20260906000837 57 318 4.0 6.0 0.00 0.00 0.00 92 1020.7
20260906000337 57 321 5.0 6.0 0.00 0.00 0.00 93 1020.7
20260905235837 57 307 12.0 17.0 0.00 0.00 0.00 92 1020.7
20260905235337 57 336 9.0 10.0 0.00 0.00 0.00 92 1020.7
20260905234836 57 348 7.0 9.0 0.00 0.00 0.00 93 1020.7
20260905234337 57 331 3.0 4.0 0.00 0.00 0.00 93 1020.7
20260905233837 57 318 7.0 7.0 0.00 0.00 0.00 93 1020.7
20260905233337 57 303 7.0 10.0 0.00 0.00 0.00 93 1020.7
20260905232837 57 298 5.0 6.0 0.00 0.00 0.00 92 1020.7
20260905232337 57 328 6.0 9.0 0.00 0.00 0.00 92 1020.7
20260905231836 57 275 5.0 7.0 0.00 0.00 0.00 92 1020.7
20260905231337 57 284 6.0 7.0 0.00 0.00 0.00 92 1020.3
20260905230837 57 288 8.0 10.0 0.00 0.00 0.00 92 1020.3
20260905230337 56 287 7.0 9.0 0.00 0.00 0.00 93 1020.3
20260905225836 56 288 7.0 7.0 0.00 0.00 0.00 94 1020.3
20260905225336 56 310 4.0 7.0 0.00 0.00 0.00 95 1020.3
20260905224836 56 285 3.0 8.0 0.00 0.00 0.00 95 1020.3
20260905224338 56 313 5.0 6.0 0.00 0.00 0.00 94 1020.3
20260905223836 56 321 3.0 4.0 0.00 0.00 0.00 94 1020.3
20260905223336 56 323 3.0 4.0 0.00 0.00 0.00 94 1020.3
20260905222837 56 305 8.0 13.0 0.00 0.00 0.00 94 1020.3
20260905222337 56 312 6.0 6.0 0.00 0.00 0.00 94 1020.3
20260905221836 56 300 5.0 7.0 0.00 0.00 0.00 94 1020.3
20260905221336 56 309 6.0 10.0 0.00 0.00 0.00 94 1020.3